Time,TemperatureF,DewpointF,PressureIn,WindDirection,WindDirectionDegrees,WindSpeedMPH,WindSpeedGustMPH,Humidity,HourlyPrecipIn,Conditions,Clouds,dailyrainin,SoftwareType,DateUTC
2013-02-04 00:09:00,40.1,38.0,30.13,SSE,150,0.0,-999.0,93,-99.99,,,0.00,weatherlink.com 1.10,2013-02-04 08:09:00,
2013-02-04 00:24:00,40.1,38.0,30.12,SSE,150,0.0,-999.0,93,-99.99,,,0.00,weatherlink.com 1.10,2013-02-04 08:24:00,
2013-02-04 00:39:00,39.8,38.0,30.12,SSE,150,0.0,-999.0,93,-99.99,,,0.00,weatherlink.com 1.10,2013-02-04 08:39:00,
2013-02-04 00:54:00,39.6,38.0,30.12,SSE,150,0.0,-999.0,93,-99.99,,,0.00,weatherlink.com 1.10,2013-02-04 08:54:00,
2013-02-04 01:09:00,39.1,37.0,30.12,SSE,150,0.0,-999.0,93,-99.99,,,0.00,weatherlink.com 1.10,2013-02-04 09:09:00,
2013-02-04 01:24:00,38.6,37.0,30.12,SSE,150,0.0,-999.0,93,-99.99,,,0.00,weatherlink.com 1.10,2013-02-04 09:24:00,
2013-02-04 01:39:00,38.0,36.0,30.12,SSE,150,0.0,-999.0,93,-99.99,,,0.00,weatherlink.com 1.10,2013-02-04 09:39:00,
2013-02-04 01:54:00,37.8,36.0,30.13,SSE,150,0.0,-999.0,93,-99.99,,,0.00,weatherlink.com 1.10,2013-02-04 09:54:00,
2013-02-04 02:09:00,37.6,36.0,30.13,SSE,150,0.0,-999.0,93,-99.99,,,0.00,weatherlink.com 1.10,2013-02-04 10:09:00,
2013-02-04 02:24:00,37.5,36.0,30.12,SSE,150,0.0,-999.0,94,-99.99,,,0.00,weatherlink.com 1.10,2013-02-04 10:24:00,
2013-02-04 02:39:00,37.2,36.0,30.13,SSE,150,0.0,-999.0,94,-99.99,,,0.00,weatherlink.com 1.10,2013-02-04 10:39:00,
2013-02-04 02:54:00,37.0,36.0,30.12,SSE,150,0.0,-999.0,94,-99.99,,,0.00,weatherlink.com 1.10,2013-02-04 10:54:00,
2013-02-04 03:09:00,36.9,35.0,30.12,SSE,150,0.0,-999.0,94,-99.99,,,0.00,weatherlink.com 1.10,2013-02-04 11:09:00,
2013-02-04 03:24:00,36.8,35.0,30.12,SSE,150,0.0,-999.0,94,-99.99,,,0.00,weatherlink.com 1.10,2013-02-04 11:24:00,
2013-02-04 03:40:00,36.8,35.0,30.12,SSE,150,0.0,-999.0,94,-99.99,,,0.00,weatherlink.com 1.10,2013-02-04 11:40:00,
2013-02-04 03:54:00,36.5,35.0,30.12,SSE,150,0.0,-999.0,94,-99.99,,,0.00,weatherlink.com 1.10,2013-02-04 11:54:00,
2013-02-04 04:09:00,36.5,35.0,30.12,SSE,150,0.0,-999.0,94,-99.99,,,0.00,weatherlink.com 1.10,2013-02-04 12:09:00,
2013-02-04 04:24:00,36.6,35.0,30.11,SSE,150,0.0,-999.0,94,-99.99,,,0.00,weatherlink.com 1.10,2013-02-04 12:24:00,
2013-02-04 04:39:00,37.0,36.0,30.11,SSE,150,0.0,-999.0,95,-99.99,,,0.00,weatherlink.com 1.10,2013-02-04 12:39:00,
2013-02-04 04:54:00,37.2,36.0,30.12,SSE,150,0.0,-999.0,95,-99.99,,,0.00,weatherlink.com 1.10,2013-02-04 12:54:00,
2013-02-04 05:09:00,37.0,36.0,30.12,SSE,150,0.0,-999.0,95,-99.99,,,0.00,weatherlink.com 1.10,2013-02-04 13:09:00,
2013-02-04 05:24:00,36.5,35.0,30.12,SSE,150,0.0,-999.0,95,-99.99,,,0.00,weatherlink.com 1.10,2013-02-04 13:24:00,
2013-02-04 05:39:00,36.2,35.0,30.12,SSE,150,0.0,-999.0,95,-99.99,,,0.00,weatherlink.com 1.10,2013-02-04 13:39:00,
2013-02-04 05:54:00,35.9,35.0,30.12,SSE,150,0.0,-999.0,95,-99.99,,,0.00,weatherlink.com 1.10,2013-02-04 13:54:00,
2013-02-04 06:09:00,35.5,34.0,30.12,SSE,150,0.0,-999.0,95,-99.99,,,0.00,weatherlink.com 1.10,2013-02-04 14:09:00,
2013-02-04 06:24:00,35.3,34.0,30.12,SSE,150,0.0,-999.0,95,-99.99,,,0.00,weatherlink.com 1.10,2013-02-04 14:24:00,
2013-02-04 06:39:00,35.2,34.0,30.12,SSE,150,0.0,-999.0,95,-99.99,,,0.00,weatherlink.com 1.10,2013-02-04 14:39:00,
2013-02-04 06:54:00,35.0,34.0,30.12,SSE,150,0.0,-999.0,95,-99.99,,,0.00,weatherlink.com 1.10,2013-02-04 14:54:00,
2013-02-04 07:09:00,34.9,34.0,30.13,SSE,150,0.0,-999.0,95,-99.99,,,0.00,weatherlink.com 1.10,2013-02-04 15:09:00,
2013-02-04 07:24:00,34.6,33.0,30.13,SSE,150,0.0,-999.0,95,-99.99,,,0.00,weatherlink.com 1.10,2013-02-04 15:24:00,
2013-02-04 07:39:00,34.7,34.0,30.13,SSE,150,0.0,-999.0,95,-99.99,,,0.00,weatherlink.com 1.10,2013-02-04 15:39:00,
2013-02-04 07:54:00,34.9,34.0,30.14,SSE,150,0.0,-999.0,95,-99.99,,,0.00,weatherlink.com 1.10,2013-02-04 15:54:00,
2013-02-04 08:10:00,36.8,36.0,30.14,SSE,150,0.0,-999.0,96,-99.99,,,0.00,weatherlink.com 1.10,2013-02-04 16:10:00,
2013-02-04 08:25:00,37.9,37.0,30.14,SSE,150,0.0,-999.0,96,-99.99,,,0.00,weatherlink.com 1.10,2013-02-04 16:25:00,
2013-02-04 08:40:00,38.3,37.0,30.14,SSE,150,0.0,-999.0,96,-99.99,,,0.00,weatherlink.com 1.10,2013-02-04 16:40:00,
2013-02-04 08:55:00,39.3,38.0,30.15,SSE,150,0.0,-999.0,96,-99.99,,,0.00,weatherlink.com 1.10,2013-02-04 16:55:00,
2013-02-04 09:10:00,39.8,39.0,30.15,SSE,150,0.0,-999.0,96,-99.99,,,0.00,weatherlink.com 1.10,2013-02-04 17:10:00,
2013-02-04 09:25:00,40.5,40.0,30.15,SSE,150,0.0,-999.0,96,-99.99,,,0.00,weatherlink.com 1.10,2013-02-04 17:25:00,
2013-02-04 09:40:00,41.6,41.0,30.15,SSE,150,0.0,-999.0,97,-99.99,,,0.00,weatherlink.com 1.10,2013-02-04 17:40:00,
2013-02-04 09:55:00,42.1,41.0,30.15,SE,138,0.0,-999.0,96,-99.99,,,0.00,weatherlink.com 1.10,2013-02-04 17:55:00,
2013-02-04 10:10:00,43.1,42.0,30.15,SE,138,0.0,-999.0,97,-99.99,,,0.00,weatherlink.com 1.10,2013-02-04 18:10:00,
2013-02-04 10:25:00,43.2,42.0,30.15,SE,138,1.0,-999.0,96,-99.99,,,0.00,weatherlink.com 1.10,2013-02-04 18:25:00,
2013-02-04 10:40:00,43.3,43.0,30.15,SE,138,4.0,-999.0,97,-99.99,,,0.00,weatherlink.com 1.10,2013-02-04 18:40:00,
2013-02-04 10:55:00,43.8,43.0,30.15,SE,138,4.0,-999.0,97,-99.99,,,0.00,weatherlink.com 1.10,2013-02-04 18:55:00,
2013-02-04 11:10:00,44.5,44.0,30.14,ESE,115,0.0,-999.0,97,-99.99,,,0.00,weatherlink.com 1.10,2013-02-04 19:10:00,
2013-02-04 11:25:00,44.6,44.0,30.14,ESE,119,2.0,-999.0,97,-99.99,,,0.00,weatherlink.com 1.10,2013-02-04 19:25:00,
2013-02-04 11:40:00,45.7,45.0,30.14,SE,134,1.0,-999.0,97,-99.99,,,0.00,weatherlink.com 1.10,2013-02-04 19:40:00,
2013-02-04 11:55:00,46.5,46.0,30.14,SE,128,5.0,-999.0,97,-99.99,,,0.00,weatherlink.com 1.10,2013-02-04 19:55:00,
2013-02-04 12:10:00,47.1,46.0,30.12,SE,137,2.0,-999.0,97,-99.99,,,0.00,weatherlink.com 1.10,2013-02-04 20:10:00,
2013-02-04 12:25:00,47.6,47.0,30.12,SE,132,7.0,-999.0,96,-99.99,,,0.00,weatherlink.com 1.10,2013-02-04 20:25:00,
2013-02-04 12:40:00,47.7,47.0,30.11,ESE,123,3.0,-999.0,96,-99.99,,,0.00,weatherlink.com 1.10,2013-02-04 20:40:00,
2013-02-04 12:55:00,49.5,48.0,30.11,SSE,148,3.0,-999.0,95,-99.99,,,0.00,weatherlink.com 1.10,2013-02-04 20:55:00,
2013-02-04 13:10:00,50.5,47.0,30.09,East,82,2.0,-999.0,89,-99.99,,,0.00,weatherlink.com 1.10,2013-02-04 21:10:00,
2013-02-04 13:25:00,51.7,47.0,30.09,SE,134,4.0,-999.0,85,-99.99,,,0.00,weatherlink.com 1.10,2013-02-04 21:25:00,
2013-02-04 13:40:00,52.5,48.0,30.09,SSE,150,2.0,-999.0,84,-99.99,,,0.00,weatherlink.com 1.10,2013-02-04 21:40:00,
2013-02-04 13:56:00,52.9,48.0,30.08,South,188,4.0,-999.0,82,-99.99,,,0.00,weatherlink.com 1.10,2013-02-04 21:56:00,
2013-02-04 14:11:00,53.6,48.0,30.07,SSE,153,3.0,-999.0,81,-99.99,,,0.00,weatherlink.com 1.10,2013-02-04 22:11:00,
2013-02-04 14:26:00,53.6,48.0,30.06,SE,130,2.0,-999.0,80,-99.99,,,0.00,weatherlink.com 1.10,2013-02-04 22:26:00,
2013-02-04 14:41:00,54.1,48.0,30.06,SE,142,3.0,-999.0,80,-99.99,,,0.00,weatherlink.com 1.10,2013-02-04 22:41:00,
2013-02-04 14:56:00,54.5,48.0,30.06,SE,129,2.0,-999.0,79,-99.99,,,0.00,weatherlink.com 1.10,2013-02-04 22:56:00,
2013-02-04 15:11:00,54.5,48.0,30.06,SE,140,1.0,-999.0,79,-99.99,,,0.00,weatherlink.com 1.10,2013-02-04 23:11:00,
2013-02-04 15:26:00,54.7,48.0,30.06,SE,145,2.0,-999.0,78,-99.99,,,0.00,weatherlink.com 1.10,2013-02-04 23:26:00,
2013-02-04 15:41:00,54.5,48.0,30.06,SE,145,0.0,-999.0,79,-99.99,,,0.00,weatherlink.com 1.10,2013-02-04 23:41:00,
2013-02-04 15:56:00,54.2,48.0,30.06,SE,145,0.0,-999.0,79,-99.99,,,0.00,weatherlink.com 1.10,2013-02-04 23:56:00,
2013-02-04 16:11:00,54.4,48.0,30.06,SE,145,0.0,-999.0,79,-99.99,,,0.00,weatherlink.com 1.10,2013-02-05 00:11:00,
2013-02-04 16:26:00,54.7,48.0,30.06,SE,145,0.0,-999.0,79,-99.99,,,0.00,weatherlink.com 1.10,2013-02-05 00:26:00,
2013-02-04 16:41:00,54.8,48.0,30.05,SE,145,0.0,-999.0,78,-99.99,,,0.00,weatherlink.com 1.10,2013-02-05 00:41:00,
2013-02-04 16:56:00,54.8,48.0,30.05,SE,145,0.0,-999.0,78,-99.99,,,0.00,weatherlink.com 1.10,2013-02-05 00:56:00,
2013-02-04 17:11:00,54.4,48.0,30.05,SE,145,0.0,-999.0,79,-99.99,,,0.00,weatherlink.com 1.10,2013-02-05 01:11:00,
2013-02-04 17:26:00,53.9,48.0,30.05,SE,145,0.0,-999.0,79,-99.99,,,0.00,weatherlink.com 1.10,2013-02-05 01:26:00,
2013-02-04 17:41:00,52.5,47.0,30.05,SE,145,0.0,-999.0,81,-99.99,,,0.00,weatherlink.com 1.10,2013-02-05 01:41:00,
2013-02-04 17:56:00,51.1,46.0,30.04,SE,145,0.0,-999.0,82,-99.99,,,0.00,weatherlink.com 1.10,2013-02-05 01:56:00,
2013-02-04 18:11:00,49.8,45.0,30.05,SE,145,0.0,-999.0,84,-99.99,,,0.00,weatherlink.com 1.10,2013-02-05 02:11:00,
2013-02-04 18:26:00,48.5,45.0,30.05,SE,145,0.0,-999.0,86,-99.99,,,0.00,weatherlink.com 1.10,2013-02-05 02:26:00,
2013-02-04 18:41:00,47.3,44.0,30.05,SE,145,0.0,-999.0,87,-99.99,,,0.00,weatherlink.com 1.10,2013-02-05 02:41:00,
2013-02-04 18:56:00,46.5,43.0,30.05,SE,145,0.0,-999.0,88,-99.99,,,0.00,weatherlink.com 1.10,2013-02-05 02:56:00,
2013-02-04 19:11:00,46.0,43.0,30.05,SE,145,0.0,-999.0,90,-99.99,,,0.00,weatherlink.com 1.10,2013-02-05 03:11:00,
2013-02-04 19:26:00,45.5,43.0,30.05,SE,145,0.0,-999.0,90,-99.99,,,0.00,weatherlink.com 1.10,2013-02-05 03:26:00,
2013-02-04 19:41:00,45.2,43.0,30.05,SE,145,0.0,-999.0,90,-99.99,,,0.00,weatherlink.com 1.10,2013-02-05 03:41:00,
2013-02-04 19:56:00,44.5,42.0,30.05,SE,145,0.0,-999.0,91,-99.99,,,0.00,weatherlink.com 1.10,2013-02-05 03:56:00,
2013-02-04 20:11:00,44.1,42.0,30.05,SE,145,0.0,-999.0,91,-99.99,,,0.00,weatherlink.com 1.10,2013-02-05 04:11:00,
2013-02-04 20:26:00,43.6,41.0,30.05,SE,145,0.0,-999.0,91,-99.99,,,0.00,weatherlink.com 1.10,2013-02-05 04:26:00,
2013-02-04 20:41:00,43.1,41.0,30.05,SE,145,0.0,-999.0,91,-99.99,,,0.00,weatherlink.com 1.10,2013-02-05 04:41:00,
2013-02-04 20:56:00,42.5,40.0,30.05,SE,145,0.0,-999.0,91,-99.99,,,0.00,weatherlink.com 1.10,2013-02-05 04:56:00,
2013-02-04 21:11:00,41.9,40.0,30.06,SE,145,0.0,-999.0,92,-99.99,,,0.00,weatherlink.com 1.10,2013-02-05 05:11:00,
2013-02-04 21:26:00,41.5,39.0,30.06,SE,145,0.0,-999.0,92,-99.99,,,0.00,weatherlink.com 1.10,2013-02-05 05:26:00,
2013-02-04 21:41:00,40.9,39.0,30.06,SE,145,0.0,-999.0,91,-99.99,,,0.00,weatherlink.com 1.10,2013-02-05 05:41:00,
2013-02-04 21:56:00,40.2,38.0,30.06,SE,145,0.0,-999.0,91,-99.99,,,0.00,weatherlink.com 1.10,2013-02-05 05:56:00,
2013-02-04 22:11:00,39.8,38.0,30.07,SE,145,0.0,-999.0,92,-99.99,,,0.00,weatherlink.com 1.10,2013-02-05 06:11:00,
2013-02-04 22:26:00,39.8,38.0,30.07,SE,145,0.0,-999.0,92,-99.99,,,0.00,weatherlink.com 1.10,2013-02-05 06:26:00,
2013-02-04 22:42:00,39.9,38.0,30.07,SE,145,0.0,-999.0,93,-99.99,,,0.00,weatherlink.com 1.10,2013-02-05 06:42:00,
2013-02-04 22:56:00,40.5,39.0,30.07,SE,145,0.0,-999.0,93,-99.99,,,0.00,weatherlink.com 1.10,2013-02-05 06:56:00,
2013-02-04 23:12:00,41.2,40.0,30.07,SE,145,0.0,-999.0,94,-99.99,,,0.00,weatherlink.com 1.10,2013-02-05 07:12:00,
2013-02-04 23:27:00,42.3,41.0,30.07,SE,145,0.0,-999.0,95,-99.99,,,0.00,weatherlink.com 1.10,2013-02-05 07:27:00,
2013-02-04 23:42:00,42.9,42.0,30.07,SE,145,0.0,-999.0,95,-99.99,,,0.00,weatherlink.com 1.10,2013-02-05 07:42:00,
2013-02-04 23:57:00,43.2,42.0,30.07,SE,145,0.0,-999.0,95,-99.99,,,0.00,weatherlink.com 1.10,2013-02-05 07:57:00,